INFORMACIÓN METAR y TAF
METAR FOR LGIR
ADDS - METARS form results

(0027 UTC 26 February 2020)
Data provider http://aviationweather.gov/metar/data/
 
METAR text: LGIR 260020Z 18008KT 9999 FEW020 08/07 Q1016 NOSIG
Conditions at: LGIR (IRAKLION (CIV/AF, GR) observed 0020 UTC 26 February 2020
Temperature: 8.0°C (46°F)
Dewpoint: 7.0°C (45°F) [RH = 93%]
Pressure (altimeter): 30.00 inches Hg (1016.0 mb)
Winds: from the S (180 degrees) at 9 MPH (8 knots; 4.1 m/s)
Visibility: 6 or more miles (10+ km)
Ceiling: at least 12,000 feet AGL
Clouds: few clouds at 2000 feet AGL
Weather: no significant weather observed at this time

METAR text: LGIR 252350Z 19005KT 9999 FEW020 09/08 Q1016 NOSIG
Conditions at: LGIR (IRAKLION (CIV/AF, GR) observed 2350 UTC 25 February 2020
Temperature: 9.0°C (48°F)
Dewpoint: 8.0°C (46°F) [RH = 93%]
Pressure (altimeter): 30.00 inches Hg (1016.0 mb)
Winds: from the S (190 degrees) at 6 MPH (5 knots; 2.6 m/s)
Visibility: 6 or more miles (10+ km)
Ceiling: at least 12,000 feet AGL
Clouds: few clouds at 2000 feet AGL
Weather: no significant weather observed at this time

Forecast for: LGIR (IRAKLION (CIV/AF, GR)
Text: TAF LGIR 252300Z 2600/2624 19012KT 9999 FEW020
Forecast period: 0000 UTC 26 February 2020 to 0000 UTC 27 February 2020
Forecast type: FROM: standard forecast or significant change
Winds: from the S (190 degrees) at 14 MPH (12 knots; 6.2 m/s)
Visibility: 6 or more miles 10+ km)
Ceiling: at least 12,000 feet AGL
Clouds: few clouds at 2000 feet AGL
Weather: no significant weather forecast for this period

 MAPA DE AEROPUERTO

 INFORMACIÓN DE PISTA
Pista 09 Longitud 8800 ft Ancho 148 ft
Elevación 78 ft Umbral desplazado 1565 ft Rumbo de pista 95
Pista 27 Longitud 8800 ft Ancho 148 ft
Elevación 82 ft Umbral desplazado 0 ft Rumbo de pista 275
Pista 12 Longitud 5138 ft Ancho 164 ft
Elevación 57 ft Umbral desplazado 499 ft Rumbo de pista 126
Pista 30 Longitud 5138 ft Ancho 164 ft
Elevación 115 ft Umbral desplazado 0 ft Rumbo de pista 306
Pista 18 Longitud 2559 ft Ancho 131 ft
Elevación 78 ft Umbral desplazado 0 ft Rumbo de pista 180
Pista 36 Longitud 2559 ft Ancho 131 ft
Elevación 115 ft Umbral desplazado 328 ft Rumbo de pista 0

 FRECUANCIAS DEL AEROPUERTO
Tipo A/G Nombre KAZANTZAKI Frecuencia 563.7 MHZ
Tipo APP Nombre IRAKLION A Frecuencia 123.975 MHZ
Tipo ATIS Nombre ATIS Frecuencia 127.55 MHZ
Tipo DIR Nombre IRAKLION D Frecuencia 118.025 MHZ
Tipo GND Nombre KAZANTZAKI Frecuencia 121.7 MHZ
Tipo TRSA Nombre IRAKLION R Frecuencia 123.975 MHZ
Tipo TWR Nombre KAZANTZAKI Frecuencia 120.85 MHZ

 RADIO AYUDAS DEL AEROPUERTO
Tipo NDB Nombre Iraklion Frecuencia 431 KHZ
Tipo VOR-DME Nombre Iraklion Frecuencia 108800 KHZ
Tipo TACAN Nombre Iraklion Frecuencia 108300 KHZ



Powered by Virtual Airlines Manager [v2.6.2]